Location: Newark
(41.0400°S, 62.7845°W)
Time: 07:23:50
(UTC+00:00)

Transit 2A - Pass Details

Date: 04 December 2021
Orbit: 591 x 967 km, 66.7° (Epoch: 19 January)

Event Time Altitude Azimuth Distance (km) Brightness Sun altitude
Rises 14:31:36 0° 18° (NNE) 3,247 9.6 63.4°
Reaches altitude 10° 14:35:09 10° 41° (NE) 2,244 9.0 63.9°
Maximum altitude 14:37:47 14° 73° (ENE) 1,913 8.7 64.3°
Drops below altitude 10° 14:40:19 10° 105° (ESE) 2,140 8.7 64.7°
Sets 14:43:33 0° 129° (SE) 2,995 9.1 65.1°
